Change the Weather History Date:

Friday, December 14, 2012

  Actual Average Record
Temperature  
Mean Temperature 28 °F -  
Max Temperature 30 °F 28 °F 52 °F (1998)
Min Temperature 25 °F 13 °F -15 °F (1985)
Degree Days  
Heating Degree Days 38    
Moisture  
Dew Point 24 °F    
Average Humidity 82    
Maximum Humidity 93    
Minimum Humidity 78    
Precipitation  
Precipitation 0.00 in - - ()
Sea Level Pressure  
Sea Level Pressure 30.19 in    
Wind  
Wind Speed 5 mph (East)    
Max Wind Speed 8 mph    
Max Gust Speed -    
Visibility 10 miles    
Events      
Averages and records for this station are not official NWS values.
T = Trace of Precipitation, MM = Missing Value Source: NWS Daily Summary

Daily Weather History Graph

Daily Weather History Graph

Search for Another Location

Airport or City:

Trip Planner

Search our weather history database for the weather conditions in past years. The results will help you decide how hot, cold, wet, or windy it might be!

Date:

Astronomy

Dec. 14, 2012 Rise Set
Actual Time 7:26 AM CST 4:08 PM CST
Civil Twilight 6:52 AM CST 4:42 PM CST
Nautical Twilight 6:14 AM CST 5:20 PM CST
Astronomical Twilight 5:38 AM CST 5:56 PM CST
Moon 8:28 AM CST (12/14) 6:04 PM CST (12/14)
Length of Visible Light 9h 50m
Length of Day
8h 41m
Waxing Crescent, 3% of the Moon is Illuminated
Dec 14
Waxing Crescent
Dec 19
First Quarter
Dec 28
Full
Jan 4
Last Quarter
Jan 11
New

Hourly Weather History & Observations

Time (CST) Temp. Windchill Dew Point Humidity Pressure Visibility Wind Dir Wind Speed Gust Speed Precip Events Conditions
12:54 AM 30.9 °F 24.3 °F 27.0 °F 85% 30.13 in 10.0 mi NW 6.9 mph - N/A   Overcast
1:54 AM 30.9 °F 25.2 °F 25.0 °F 79% 30.15 in 10.0 mi NNW 5.8 mph - N/A   Overcast
2:54 AM 28.9 °F 21.9 °F 23.0 °F 78% 30.16 in 10.0 mi NNW 6.9 mph - N/A   Overcast
3:54 AM 28.0 °F 22.8 °F 23.0 °F 81% 30.18 in 10.0 mi North 4.6 mph - N/A   Overcast
4:54 AM 27.0 °F 20.5 °F 21.9 °F 81% 30.19 in 10.0 mi North 5.8 mph - N/A   Overcast
5:54 AM 27.0 °F - 21.0 °F 78% 30.21 in 10.0 mi Calm Calm - N/A   Overcast
6:15 AM 26.6 °F - 21.2 °F 80% 30.15 in 10.0 mi Calm Calm - N/A   Overcast
6:54 AM 25.0 °F 20.7 °F 21.0 °F 85% 30.21 in 10.0 mi NNE 3.5 mph - N/A   Overcast
7:54 AM 26.1 °F 21.9 °F 21.0 °F 81% 30.22 in 10.0 mi NNE 3.5 mph - N/A   Overcast
8:54 AM 28.0 °F 22.8 °F 21.9 °F 78% 30.24 in 10.0 mi ENE 4.6 mph - N/A   Overcast
9:54 AM 28.0 °F 21.7 °F 21.9 °F 78% 30.26 in 10.0 mi SE 5.8 mph - N/A   Overcast
10:54 AM 28.0 °F 20.0 °F 21.9 °F 78% 30.26 in 10.0 mi SE 8.1 mph - N/A   Overcast
11:54 AM 28.0 °F 20.0 °F 21.9 °F 78% 30.25 in 10.0 mi South 8.1 mph - N/A   Overcast
12:54 PM 28.9 °F 22.8 °F 23.0 °F 78% 30.23 in 10.0 mi ESE 5.8 mph - N/A   Overcast
1:54 PM 28.9 °F 21.9 °F 24.1 °F 82% 30.20 in 10.0 mi ESE 6.9 mph - N/A   Overcast
2:54 PM 28.9 °F 22.8 °F 24.1 °F 82% 30.19 in 10.0 mi ESE 5.8 mph - N/A   Overcast
4:54 PM 28.9 °F 22.8 °F 24.1 °F 82% 30.18 in 10.0 mi East 5.8 mph - N/A   Overcast
5:54 PM 28.9 °F 23.9 °F 25.0 °F 85% 30.20 in 10.0 mi ESE 4.6 mph - N/A   Overcast
6:54 PM 28.9 °F 23.9 °F 25.0 °F 85% 30.20 in 10.0 mi ESE 4.6 mph - N/A   Overcast
7:54 PM 30.0 °F 24.1 °F 25.0 °F 82% 30.20 in 10.0 mi ESE 5.8 mph - N/A   Overcast
8:54 PM 30.0 °F 25.2 °F 26.1 °F 85% 30.17 in 10.0 mi East 4.6 mph - N/A   Overcast
9:54 PM 28.9 °F 22.8 °F 26.1 °F 89% 30.15 in 10.0 mi SE 5.8 mph - N/A   Overcast
10:54 PM 28.9 °F 21.9 °F 26.1 °F 89% 30.13 in 10.0 mi ESE 6.9 mph - N/A   Overcast
11:01 PM 28.4 °F 22.2 °F 26.6 °F 93% 30.08 in 10.0 mi ESE 5.8 mph - N/A   Overcast
11:54 PM 30.0 °F 24.1 °F 27.0 °F 88% 30.11 in 10.0 mi ESE 5.8 mph - N/A   Overcast